Tracking 30696 objects as of 15-Jun-2025
HD Live streaming from Space Station
objects crossing your sky now

STARLINK-30940

Track STARLINK-30940 now!
10-day predictions
STARLINK-30940 is classified as:


NORAD ID: 58409
Int'l Code: 2023-180H
Perigee: 494.6 km
Apogee: 495.8 km
Inclination: 43.0 °
Period: 94.4 minutes
Semi major axis: 6866 km
RCS: Unknown
Launch date: November 22, 2023
Source: United States (US)
Launch site: AIR FORCE EASTERN TEST RANGE (AFETR)
Your satellite tracking list
Your tracking list is empty




NASA's NSSDC Master Catalog

Two Line Element Set (TLE):
1 58409U 23180H   25165.76350230 -.00002726  00000-0 -94434-4 0  9992
2 58409  43.0019 338.1707 0000851 287.4949  72.5809 15.25902260 88381
Source of the keplerian elements: AFSPC